• In Latvia
  • List of Countries
  • For 7 days
  • Water Temperature
  • Satellite Maps
  • Weather Map
  • Weather Widgets
  • user-avatar
    Login

    Hourly Weather Beshkazak

    Today, 19 January, Friday

    Time Temperature Precipitation Wind Pressure Humidity
    00:00 +8°C° 0 mm 3 mps 705 mmHg 45%
    01:00 +8°C° 0 mm 3 mps 705 mmHg 45%
    02:00 +8°C° 0 mm 3 mps 705 mmHg 44%
    03:00 +8°C° 0 mm 3 mps 705 mmHg 44%
    04:00 +8°C° 0 mm 3 mps 704 mmHg 44%
    05:00 +8°C° 0 mm 3 mps 705 mmHg 43%
    06:00 +8°C° 0 mm 3 mps 705 mmHg 43%
    07:00 +7°C° 0 mm 3 mps 705 mmHg 42%
    08:00 +9°C° 0 mm 3 mps 706 mmHg 38%
    09:00 +11°C° 0 mm 3 mps 706 mmHg 34%
    10:00 +14°C° 0 mm 2 mps 706 mmHg 30%
    11:00 +14°C° 0 mm 3 mps 706 mmHg 28%
    12:00 +16°C° 0 mm 3 mps 707 mmHg 26%
    13:00 +15°C° 0 mm 4 mps 707 mmHg 24%
    14:00 +16°C° 0 mm 3 mps 707 mmHg 27%
    15:00 +14°C° 0 mm 3 mps 707 mmHg 29%
    16:00 +13°C° 0 mm 3 mps 707 mmHg 31%
    17:00 +12°C° 0 mm 3 mps 707 mmHg 31%
    18:00 +11°C° 0 mm 4 mps 707 mmHg 31%
    19:00 +10°C° 0 mm 4 mps 707 mmHg 31%
    20:00 +10°C° 0 mm 4 mps 707 mmHg 30%
    21:00 +8°C° 0 mm 4 mps 707 mmHg 29%
    22:00 +8°C° 0 mm 4 mps 707 mmHg 27%
    23:00 +8°C° 0 mm 4 mps 707 mmHg 26%

    Tomorrow, 20 January, Saturday

    Time Temperature Precipitation Wind Pressure Humidity
    00:00 +8°C° 0 mm 4 mps 707 mmHg 26%
    01:00 +8°C° 0 mm 4 mps 707 mmHg 25%
    02:00 +8°C° 0 mm 4 mps 706 mmHg 24%
    03:00 +8°C° 0 mm 4 mps 706 mmHg 24%
    04:00 +8°C° 0 mm 4 mps 706 mmHg 23%
    05:00 +8°C° 0 mm 4 mps 706 mmHg 23%
    06:00 +8°C° 0 mm 4 mps 706 mmHg 22%
    07:00 +8°C° 0 mm 4 mps 706 mmHg 22%
    08:00 +11°C° 0 mm 4 mps 706 mmHg 22%
    09:00 +14°C° 0 mm 3 mps 706 mmHg 21%
    10:00 +17°C° 0 mm 3 mps 706 mmHg 21%
    11:00 +18°C° 0 mm 2 mps 706 mmHg 19%
    12:00 +19°C° 0 mm 2 mps 705 mmHg 18%
    13:00 +21°C° 0 mm 1 mps 705 mmHg 16%
    14:00 +20°C° 0 mm 1 mps 704 mmHg 17%
    15:00 +18°C° 0 mm 2 mps 704 mmHg 18%
    16:00 +17°C° 0 mm 2 mps 703 mmHg 20%
    17:00 +16°C° 0 mm 2 mps 703 mmHg 20%
    18:00 +13°C° 0 mm 3 mps 703 mmHg 20%
    19:00 +12°C° 0 mm 3 mps 703 mmHg 20%
    20:00 +12°C° 0 mm 3 mps 703 mmHg 19%
    21:00 +12°C° 0 mm 3 mps 702 mmHg 18%
    22:00 +11°C° 0 mm 3 mps 702 mmHg 18%
    23:00 +12°C° 0 mm 2 mps 702 mmHg 17%

    Day after tomorrow, 21 January, Sunday

    Time Temperature Precipitation Wind Pressure Humidity
    00:00 +12°C° 0 mm 2 mps 702 mmHg 16%
    01:00 +12°C° 0 mm 2 mps 702 mmHg 16%
    02:00 +10°C° 0 mm 2 mps 702 mmHg 15%
    03:00 +10°C° 0 mm 2 mps 701 mmHg 15%
    04:00 +10°C° 0 mm 2 mps 701 mmHg 15%
    05:00 +10°C° 0 mm 2 mps 702 mmHg 14%
    06:00 +10°C° 0 mm 2 mps 702 mmHg 14%
    07:00 +9°C° 0 mm 2 mps 702 mmHg 13%
    08:00 +12°C° 0 mm 2 mps 703 mmHg 15%
    09:00 +14°C° 0 mm 2 mps 703 mmHg 16%
    10:00 +16°C° 0 mm 2 mps 704 mmHg 17%
    11:00 +16°C° 0 mm 2 mps 704 mmHg 18%
    12:00 +17°C° 0 mm 2 mps 703 mmHg 18%
    13:00 +17°C° 0 mm 2 mps 703 mmHg 19%
    14:00 +16°C° 0 mm 2 mps 703 mmHg 22%
    15:00 +14°C° 0 mm 2 mps 703 mmHg 25%
    16:00 +13°C° 0 mm 2 mps 703 mmHg 28%
    17:00 +12°C° 0 mm 2 mps 703 mmHg 30%
    18:00 +10°C° 0 mm 2 mps 704 mmHg 32%
    19:00 +8°C° 0 mm 2 mps 704 mmHg 34%
    20:00 +8°C° 0 mm 2 mps 704 mmHg 34%
    21:00 +8°C° 0 mm 2 mps 704 mmHg 34%
    22:00 +7°C° 0 mm 2 mps 705 mmHg 34%
    23:00 +7°C° 0 mm 2 mps 705 mmHg 34%

    22 January, Monday

    Time Temperature Precipitation Wind Pressure Humidity
    00:00 +7°C° 0 mm 2 mps 705 mmHg 34%
    01:00 +6°C° 0 mm 2 mps 705 mmHg 34%
    02:00 +7°C° 0 mm 1 mps 705 mmHg 34%
    03:00 +7°C° 0 mm 1 mps 705 mmHg 34%
    04:00 +6°C° 0 mm 1 mps 705 mmHg 34%
    05:00 +6°C° 0 mm 1 mps 705 mmHg 34%
    06:00 +6°C° 0 mm 1 mps 705 mmHg 34%
    07:00 +6°C° 0 mm 1 mps 705 mmHg 34%
    08:00 +8°C° 0 mm 1 mps 706 mmHg 31%
    09:00 +9°C° 0 mm 1 mps 706 mmHg 28%
    10:00 +11°C° 0 mm 1 mps 707 mmHg 26%
    11:00 +11°C° 0 mm 1 mps 706 mmHg 26%
    12:00 +12°C° 0 mm 1 mps 706 mmHg 26%
    13:00 +12°C° 0 mm 2 mps 706 mmHg 26%
    14:00 +12°C° 0 mm 1 mps 706 mmHg 29%
    15:00 +11°C° 0 mm 1 mps 705 mmHg 32%
    16:00 +11°C° 0 mm 1 mps 705 mmHg 35%
    17:00 +10°C° 0 mm 1 mps 705 mmHg 36%
    18:00 +9°C° 0 mm 1 mps 705 mmHg 37%
    19:00 +9°C° 0 mm 1 mps 705 mmHg 39%
    20:00 +8°C° 0 mm 1 mps 705 mmHg 39%
    21:00 +8°C° 0 mm 1 mps 705 mmHg 39%
    22:00 +8°C° 0 mm 1 mps 705 mmHg 38%
    23:00 +7°C° 0 mm 1 mps 705 mmHg 38%

    23 January, Tuesday

    Time Temperature Precipitation Wind Pressure Humidity
    00:00 +7°C° 0 mm 1 mps 705 mmHg 37%
    01:00 +7°C° 0 mm 1 mps 704 mmHg 36%
    02:00 +7°C° 0 mm 1 mps 704 mmHg 35%
    03:00 +7°C° 0 mm 1 mps 704 mmHg 34%
    04:00 +6°C° 0 mm 2 mps 704 mmHg 33%
    05:00 +6°C° 0 mm 2 mps 704 mmHg 32%
    06:00 +6°C° 0 mm 2 mps 704 mmHg 31%
    07:00 +6°C° 0 mm 2 mps 704 mmHg 30%
    08:00 +8°C° 0 mm 2 mps 704 mmHg 28%
    09:00 +10°C° 0 mm 2 mps 704 mmHg 26%
    10:00 +13°C° 0 mm 1 mps 704 mmHg 23%
    11:00 +14°C° 0 mm 1 mps 704 mmHg 22%
    12:00 +15°C° 0 mm 1 mps 703 mmHg 21%
    13:00 +16°C° 0 mm 1 mps 703 mmHg 21%
    14:00 +15°C° 0 mm 2 mps 703 mmHg 23%
    15:00 +14°C° 0 mm 2 mps 703 mmHg 25%
    16:00 +14°C° 0 mm 2 mps 703 mmHg 27%
    17:00 +13°C° 0 mm 2 mps 703 mmHg 28%
    18:00 +11°C° 0 mm 3 mps 703 mmHg 29%
    19:00 +10°C° 0 mm 3 mps 703 mmHg 31%
    20:00 +10°C° 0 mm 3 mps 702 mmHg 30%
    21:00 +10°C° 0 mm 3 mps 702 mmHg 29%
    22:00 +10°C° 0 mm 3 mps 702 mmHg 29%
    23:00 +10°C° 0 mm 3 mps 702 mmHg 28%

    24 January, Wednesday

    Time Temperature Precipitation Wind Pressure Humidity
    00:00 +10°C° 0 mm 3 mps 702 mmHg 27%
    01:00 +10°C° 0 mm 3 mps 702 mmHg 26%
    02:00 +10°C° 0 mm 3 mps 702 mmHg 25%
    03:00 +10°C° 0 mm 3 mps 702 mmHg 24%
    04:00 +9°C° 0 mm 3 mps 701 mmHg 23%
    05:00 +9°C° 0 mm 3 mps 702 mmHg 24%
    06:00 +9°C° 0 mm 3 mps 702 mmHg 24%
    07:00 +9°C° 0 mm 3 mps 702 mmHg 24%
    08:00 +11°C° 0 mm 3 mps 702 mmHg 24%
    09:00 +14°C° 0 mm 2 mps 702 mmHg 23%
    10:00 +16°C° 0 mm 2 mps 703 mmHg 23%
    11:00 +17°C° 0 mm 2 mps 702 mmHg 23%
    12:00 +17°C° 0 mm 2 mps 702 mmHg 23%
    13:00 +18°C° 0 mm 2 mps 702 mmHg 22%
    14:00 +17°C° 0 mm 2 mps 702 mmHg 24%
    15:00 +16°C° 0 mm 1 mps 702 mmHg 26%
    16:00 +15°C° 0 mm 1 mps 701 mmHg 28%
    17:00 +14°C° 0 mm 1 mps 702 mmHg 29%
    18:00 +13°C° 0 mm 2 mps 702 mmHg 30%
    19:00 +12°C° 0 mm 2 mps 702 mmHg 31%
    20:00 +12°C° 0 mm 2 mps 702 mmHg 31%
    21:00 +11°C° 0 mm 3 mps 702 mmHg 31%
    22:00 +11°C° 0 mm 3 mps 702 mmHg 30%
    23:00 +11°C° 0 mm 3 mps 702 mmHg 32%
    Show more